Flag for Australia Weather past 2 weeks in The Settlement, Christmas Island, Australia

Now
75 °F

Passing clouds.


Feels Like: 74 °F
Forecast: 76 / 84 °F
Wind: 6 mph from Northeast

Location: Christmas Island Aerodrome


UV Index: 7 (High)

Visibility: N/A


Pressure: 29.92 "Hg

Humidity: 94%

Dew point: 73 °F

Location of The SettlementLocation

Historic Weather in The Settlement

°F

The Settlement temperature yesterday

Maximum temperature yesterday: 82 °F (at 11:00 AM)
Minimum temperature yesterday: 73 °F (at 12:00 AM)
Average temperature yesterday: 78 °F

Past Weeks' High & Low Weather Summary

 TemperatureHumidityPressure
High84 °F (Apr 3, 11:00 AM)100% (Apr 2, 11:00 PM)29.95 "Hg (Apr 2, 11:00 PM)
Low72 °F (Apr 11, 2:00 AM)74% (Apr 16, 9:00 AM)29.80 "Hg (Apr 12, 4:00 PM)
Average78 °F97%29.88 "Hg
* Reported Apr 2 11:00 PM — Apr 17 11:00 PM, The Settlement, Weather by CustomWeather, © 2014

Note: Actual official high and low records may vary slightly from our data, if they occured in-between our weather recording intervals... More about our weather records

Advertising

Historic Weather Conditions — Data for Previous 24 hours

 ConditionsComfort  
Time TempWeatherWind HumidityBarometerVisibility
11:00 PM
Apr 17
75 °FPassing clouds.6 mph94%29.92 "HgN/A
9:00 PM77 °FPartly cloudy.7 mph94%29.92 "HgN/A
8:00 PM77 °FOvercast.1 mph94%29.92 "HgN/A
7:45 PM77 °FMostly cloudy.3 mph94%29.89 "HgN/A
7:00 PM75 °FPartly cloudy.3 mph94%29.89 "HgN/A
5:00 PM81 °FSunny.6 mph79%29.86 "HgN/A
4:00 PM81 °FScattered clouds.7 mph74%29.83 "HgN/A
3:00 PM82 °FScattered clouds.7 mph74%29.83 "HgN/A
2:00 PM82 °FBroken clouds.8 mph74%29.86 "HgN/A
1:00 PM82 °FPartly sunny.9 mph79%29.86 "HgN/A
12:00 PM82 °FMore clouds than sun.9 mph74%29.89 "HgN/A
11:00 AM82 °FBroken clouds.9 mph79%29.92 "HgN/A
10:00 AM79 °FBroken clouds.6 mph89%29.92 "HgN/A
9:00 AM79 °FBroken clouds.6 mph89%29.92 "HgN/A
8:00 AM77 °FScattered clouds.5 mph89%29.92 "HgN/A
6:00 AM73 °FMild.No wind94%29.86 "HgN/A
5:00 AM73 °FMild.No wind94%29.86 "HgN/A
4:00 AM73 °FMild.No wind94%29.86 "HgN/A
2:00 AM73 °FMild.No wind94%29.86 "HgN/A
1:00 AM73 °FMild.No wind94%29.89 "HgN/A
12:00 AM73 °FMild.No wind94%29.89 "HgN/A
Weather by CustomWeather, © 2014

See weather overview